Regional Weather Roundup
Issued by NWS

Home | Current Version | Previous Version | Graphics & Text | Print | Product List | Glossary On
Versions: 1 2 3 4 5 6 7 8 9 10 11 12 13 14 15 16 17 18 19 20 21 22 23 24 25 26 27 28 29 30 31 32 33 34 35 36 37 38 39 40 41 42 43 44 45 46 47 48 49 50
000
ASUS43 KFSD 270702
RWRSD

WEATHER ROUNDUP FOR SOUTH DAKOTA
NATIONAL WEATHER SERVICE SIOUX FALLS SD
200 AM CDT SAT MAY 27 2017

NOTE: "FAIR" INDICATES FEW OR NO CLOUDS BELOW 12,000 FEET WITH NO
SIGNIFICANT WEATHER AND/OR OBSTRUCTIONS TO VISIBILITY.


SDZ001>005-009-010-012>017-270800-
NORTHWEST AND NORTH CENTRAL SOUTH DAKOTA

CITY           SKY/WX    TMP DP  RH WIND       PRES   REMARKS
BUFFALO          N/A     48  41  76 W6        29.88S
FAITH            N/A     55  42  61 SW10      29.93S
MOBRIDGE       CLOUDY    54  43  66 SE5       29.87R
$$

SDZ012>016-024>037-041>051-057-063-072>074-270800-
SOUTHWEST AND SOUTH CENTRAL SOUTH DAKOTA

CITY           SKY/WX    TMP DP  RH WIND       PRES   REMARKS
RAPID CTY ARPT LGT RAIN  50  48  93 W5        29.98F
PIERRE         CLOUDY    61  42  49 W12       29.91R
CUSTER         CLOUDY    43  40  89 N3        30.00F
ELLSWORTH AFB  LGT RAIN  50  50 100 SW5       29.97F
PHILIP         LGT RAIN  53  50  89 NW9       29.96R
PINE RIDGE     PTCLDY    50  49  96 N7        29.94F
SPEARFISH      CLOUDY    50  43  76 S12       29.97F
WINNER         CLOUDY    59  47  64 SW7       29.94R
$$

SDZ004>011-016>023-039-040-270800-
NORTHEAST SOUTH DAKOTA

CITY           SKY/WX    TMP DP  RH WIND       PRES   REMARKS
ABERDEEN       CLOUDY    49  40  71 SW6       29.87F
WATERTOWN      CLEAR     50  45  83 CALM      29.89R
BROOKINGS      MOCLDY    52  46  80 CALM      29.91R
SISSETON         N/A     53  47  79 CALM      29.86S
$$

SDZ017-020-022-023-036>040-048>070-270800-
SOUTHEAST SOUTH DAKOTA

CITY           SKY/WX    TMP DP  RH WIND       PRES   REMARKS
SIOUX FALLS    PTCLDY    49  44  83 CALM      29.90S
HURON          CLOUDY    56  47  71 CALM      29.89S
CHAMBERLAIN    CLOUDY    60  48  65 W5        29.92S
MITCHELL       MOCLDY    56  50  80 CALM      29.90S
YANKTON        CLOUDY    55  48  77 CALM      29.91S
$$

ABBREVIATIONS USED IN REMARKS
   TC - TEMPERATURE IN CELSIUS
  WCI - WIND CHILL INDEX
   HX - HEAT INDEX
  VSB - VISIBILITY





USA.gov is the U.S. government's official web portal to all federal, state and local government web resources and services.